Weather History for Williamtown, NW

Change the Weather History Date:

Thursday, May 16, 2013

  Actual Average Record
Temperature  
Mean Temperature 58 °F -  
Max Temperature 70 °F - - ()
Min Temperature 46 °F - - ()
Degree Days  
Heating Degree Days 7    
Growing Degree Days 8 (Base 50)    
Moisture  
Dew Point 44 °F    
Average Humidity 62    
Maximum Humidity 93    
Minimum Humidity 24    
Precipitation  
Precipitation 0.00 in - - ()
Sea Level Pressure  
Sea Level Pressure 29.85 in    
Wind  
Wind Speed 8 mph ()    
Max Wind Speed 25 mph    
Max Gust Speed 36 mph    
Visibility 7.7 miles    
Events      
T = Trace of Precipitation, MM = Missing Value Source: Averaged Metar Reports

Daily Weather History Graph

Daily Weather History Graph

Search for Another Location

Airport:

Trip Planner

Search our weather history database for the weather conditions in past years. The results will help you decide how hot, cold, wet, or windy it might be!

Date:

Astronomy

May. 16, 2013 Rise Set
Actual Time 6:36 AM AEST 5:01 PM AEST
Civil Twilight 6:09 AM AEST 5:27 PM AEST
Nautical Twilight 5:40 AM AEST 5:57 PM AEST
Astronomical Twilight 5:10 AM AEST 6:27 PM AEST
Moon 11:05 AM AEST (5/16) 10:10 PM AEST (5/16)
Length of Visible Light 11h 17m
Length of Day
10h 25m
Waxing Crescent, 30% of the Moon is Illuminated
May 16
Waxing Crescent
May 18
First Quarter
May 25
Full
Jun 1
Last Quarter
Jun 9
New

Hourly Weather History & Observations

Time (AEST) Temp. Windchill Dew Point Humidity Pressure Visibility Wind Dir Wind Speed Gust Speed Precip Events Conditions
12:00 AM 50 °F - 44 °F 74% 29.90 in - Calm Calm - -  
12:00 AM 50.0 °F - 44.6 °F 82% 29.89 in 6.2 mi Calm Calm - N/A   Unknown
12:30 AM 48.2 °F - 44.6 °F 87% 29.89 in 6.2 mi Calm Calm - N/A   Unknown
1:00 AM 49 °F - 44 °F 77% 29.90 in - NE 4.6 mph - -  
1:00 AM 48.2 °F - 44.6 °F 87% 29.89 in 6.2 mi NE 4.6 mph - N/A   Unknown
1:30 AM 48.2 °F - 44.6 °F 87% 29.89 in 6.2 mi Calm Calm - N/A   Unknown
2:00 AM 48.2 °F - 44.6 °F 87% 29.89 in 6.2 mi WSW 2.3 mph - N/A   Unknown
2:30 AM 48.2 °F - 44.6 °F 87% 29.86 in 6.2 mi Calm Calm - N/A   Unknown
3:00 AM 47 °F - 45 °F 91% 29.88 in - North 4.6 mph - -  
3:00 AM 48.2 °F - 44.6 °F 87% 29.86 in 6.2 mi North 4.6 mph - N/A   Unknown
3:30 AM 48.2 °F - 44.6 °F 87% 29.86 in 6.2 mi Calm Calm - N/A   Unknown
4:00 AM 46.4 °F 43.5 °F 44.6 °F 93% 29.86 in 6.2 mi SSW 5.8 mph - N/A   Unknown
4:30 AM 48.2 °F - 44.6 °F 87% 29.86 in 6.2 mi SW 3.5 mph - N/A   Unknown
5:00 AM 48.2 °F - 44.6 °F 87% 29.86 in 6.2 mi WNW 5.8 mph - N/A   Unknown
5:30 AM 50.0 °F - 44.6 °F 82% 29.86 in 6.2 mi Calm Calm - N/A   Unknown
6:00 AM 49 °F - 45 °F 80% 29.88 in 19 mi Calm Calm - -   Partly Cloudy
6:00 AM 48.2 °F - 44.6 °F 87% 29.86 in - Calm Calm - N/A   Clear
6:30 AM 48.2 °F - 44.6 °F 87% 29.86 in - North 4.6 mph - N/A   Clear
7:00 AM 48.2 °F - 46.4 °F 93% 29.89 in - Calm Calm - N/A   Clear
7:30 AM 50.0 °F - 46.4 °F 87% 29.89 in - North 2.3 mph - N/A   Clear
8:00 AM 53.6 °F - 46.4 °F 77% 29.89 in - NNW 6.9 mph - N/A   Clear
8:30 AM 57.2 °F - 46.4 °F 67% 29.89 in - NW 10.4 mph - N/A   Clear
9:00 AM 61 °F - 45 °F 45% 29.90 in 19 mi NW 10.4 mph - -   Partly Cloudy
9:00 AM 60.8 °F - 44.6 °F 55% 29.89 in 6.2 mi NW 10.4 mph - N/A   Partly Cloudy
9:30 AM 64.4 °F - 44.6 °F 49% 29.89 in 6.2 mi WNW 11.5 mph - N/A   Partly Cloudy
10:00 AM 66 °F - 44 °F 33% 29.89 in - WNW 24.2 mph - -  
10:00 AM 66.2 °F - 42.8 °F 43% 29.89 in 6.2 mi WNW 24.2 mph - N/A   Partly Cloudy
10:30 AM 66.2 °F - 42.8 °F 43% 29.86 in 6.2 mi WNW 21.9 mph - N/A   Partly Cloudy
11:00 AM 68.0 °F - 42.8 °F 40% 29.86 in 6.2 mi WNW 24.2 mph - N/A   Partly Cloudy
11:30 AM 68.0 °F - 42.8 °F 40% 29.83 in 6.2 mi WNW 21.9 mph - N/A   Partly Cloudy
11:55 AM 69.8 °F - 42.8 °F 38% 29.83 in 6.2 mi WNW 23.0 mph 35.7 mph N/A   Partly Cloudy
12:00 PM 69 °F - 44 °F 29% 29.84 in 19 mi WNW 24.2 mph - -   Partly Cloudy
12:00 PM 69.8 °F - 44.6 °F 40% 29.83 in 6.2 mi WNW 24.2 mph 35.7 mph N/A   Partly Cloudy
12:30 PM 69.8 °F - 42.8 °F 38% 29.80 in 6.2 mi WNW 23.0 mph - N/A   Partly Cloudy
1:00 PM 70 °F - 41 °F 24% 29.80 in - NW 25.3 mph - -  
1:00 PM 69.8 °F - 41.0 °F 35% 29.80 in - NW 25.3 mph - N/A   Clear
1:11 PM 69.8 °F - 41.0 °F 35% 29.77 in - WNW 23.0 mph 34.5 mph N/A   Clear
1:30 PM 69.8 °F - 41.0 °F 35% 29.77 in - WNW 23.0 mph - N/A   Clear
2:00 PM 69.8 °F - 41.0 °F 35% 29.77 in - NW 24.2 mph - N/A   Clear
2:19 PM 69.8 °F - 41.0 °F 35% 29.77 in - WNW 21.9 mph 33.4 mph N/A   Clear
2:30 PM 68.0 °F - 41.0 °F 37% 29.77 in - NW 24.2 mph - N/A   Clear
3:00 PM 68 °F - 44 °F 31% 29.79 in 19 mi NNW 17.3 mph - -  
3:00 PM 68.0 °F - 44.6 °F 43% 29.77 in - NNW 17.3 mph - N/A   Clear
3:30 PM 66.2 °F - 42.8 °F 43% 29.77 in - NW 15.0 mph - N/A   Clear
4:00 PM 65 °F - 46 °F 39% 29.80 in - NW 12.7 mph - -  
4:00 PM 66.2 °F - 46.4 °F 49% 29.80 in - NW 12.7 mph - N/A   Clear
4:30 PM 64.4 °F - 44.6 °F 49% 29.80 in - NW 15.0 mph - N/A   Clear
5:00 PM 64.4 °F - 44.6 °F 49% 29.80 in - NW 10.4 mph - N/A   Clear
5:30 PM 60.8 °F - 44.6 °F 55% 29.80 in - NW 10.4 mph - N/A   Clear
6:00 PM 58 °F - 45 °F 52% 29.83 in - WNW 9.2 mph - -  
6:00 PM 57.2 °F - 44.6 °F 63% 29.83 in - WNW 9.2 mph - N/A   Clear
6:30 PM 59.0 °F - 46.4 °F 63% 29.83 in - WNW 9.2 mph - N/A   Clear
7:00 PM 57 °F - 46 °F 56% 29.85 in - WNW 10.4 mph - -  
7:00 PM 57.2 °F - 46.4 °F 67% 29.83 in 6.2 mi WNW 10.4 mph - N/A   Scattered Clouds
7:30 PM 57.2 °F - 44.6 °F 63% 29.83 in 6.2 mi WNW 13.8 mph - N/A   Unknown
8:00 PM 55.4 °F - 44.6 °F 67% 29.86 in 6.2 mi WNW 10.4 mph - N/A   Unknown
8:30 PM 55.4 °F - 44.6 °F 67% 29.86 in 6.2 mi WNW 10.4 mph - N/A   Unknown
9:00 PM 53 °F - 45 °F 66% 29.88 in - WNW 9.2 mph - -  
9:00 PM 53.6 °F - 44.6 °F 72% 29.86 in 6.2 mi WNW 9.2 mph - N/A   Unknown
9:30 PM 53.6 °F - 46.4 °F 77% 29.89 in 6.2 mi WNW 10.4 mph - N/A   Unknown
10:00 PM 54 °F - 46 °F 65% 29.88 in - WNW 8.1 mph - -  
10:00 PM 53.6 °F - 46.4 °F 77% 29.86 in 6.2 mi WNW 8.1 mph - N/A   Unknown
10:30 PM 53.6 °F - 46.4 °F 77% 29.89 in 6.2 mi WNW 8.1 mph - N/A   Unknown
11:00 PM 51.8 °F - 44.6 °F 76% 29.89 in 6.2 mi WNW 8.1 mph - N/A   Unknown
11:30 PM 51.8 °F - 46.4 °F 82% 29.86 in 6.2 mi WNW 6.9 mph - N/A   Unknown